Location: Unspecified
(51.0000°N, 12.0000°E)
Time: 18:20:06
(UTC+02:00)

OTV 5 (USA 277) - Visible Passes

Search period start: 23 April 2019 00:00
Search period end: 03 May 2019 00:00
Orbit: 309 x 326 km, 54.5° (Epoch: 21 April)

Date Brightness Start Highest point End Pass type
(mag) Time Alt. Az. Time Alt. Az. Time Alt. Az.
23 Apr ? 21:24:24 10° S 21:25:21 13° SSE 21:25:21 13° SSE visible
24 Apr ? 21:38:05 10° SSW 21:40:31 29° SE 21:41:46 20° E visible
24 Apr ? 23:12:03 10° W 23:12:45 16° W 23:12:45 16° W visible
25 Apr ? 21:52:27 10° SW 21:55:09 61° SSE 21:57:17 15° ENE visible
25 Apr ? 23:26:58 10° W 23:28:14 22° WNW 23:28:14 22° WNW visible
26 Apr ? 22:07:09 10° WSW 22:09:52 72° NNW 22:12:12 13° ENE visible
26 Apr ? 23:41:54 10° WNW 23:43:08 21° NW 23:43:08 21° NW visible
27 Apr ? 22:22:01 10° W 22:24:40 46° NNW 22:26:46 15° ENE visible
27 Apr ? 23:56:44 10° WNW 23:57:40 18° NW 23:57:40 18° NW visible
28 Apr ? 22:36:56 10° WNW 22:39:32 37° N 22:41:06 19° NE visible
29 Apr ? 00:11:30 10° WNW 00:11:59 14° WNW 00:11:59 14° WNW visible
29 Apr ? 21:17:04 10° W 21:19:47 56° NNW 21:22:28 10° ENE visible
29 Apr ? 22:51:50 10° WNW 22:54:25 36° N 22:55:17 27° NE visible
30 Apr ? 21:31:59 10° W 21:34:36 40° N 21:37:13 10° ENE visible
30 Apr ? 23:06:38 10° WNW 23:09:16 43° NNE 23:09:25 43° NNE visible
01 May ? 21:46:53 10° WNW 21:49:28 36° N 21:52:03 10° ENE visible
01 May ? 23:21:21 10° WNW 23:23:28 46° NW 23:23:28 46° NW visible
02 May ? 22:01:44 10° WNW 22:04:20 39° N 22:06:38 12° ENE visible
02 May ? 23:36:06 10° WNW 23:37:31 27° WNW 23:37:31 27° WNW visible
